Regional Weather Roundup
Issued by NWS

Home | Current Version | Previous Version | Graphics & Text | Print | Product List | Glossary Off
Versions: 1 2 3 4 5 6 7 8 9 10 11 12 13 14 15 16 17 18 19 20 21 22 23 24 25 26 27 28 29 30 31 32 33 34 35 36 37 38 39 40 41 42 43 44 45 46 47 48 49 50

000
ASUS43 KMPX 260701
RWRMN
WEATHER ROUNDUP FOR MINNESOTA
NATIONAL WEATHER SERVICE TWIN CITIES/CHANHASSEN MN
100 AM CST FRI DEC 26 2014


NOTE: "FAIR" INDICATES FEW OR NO CLOUDS BELOW 12,000 FEET WITH NO
SIGNIFICANT WEATHER AND/OR OBSTRUCTIONS TO VISIBILITY. N/A MEANS
CURRENT SKY AND/OR WEATHER CONDITIONS ARE NOT AVAILABLE.

MNZ060>063-068>070-260800-
   Twin Cities Metro

CITY           SKY/WX    TMP DP  RH WIND       PRES   REMARKS
TWIN CITIES    CLOUDY    31  29  92 N7        29.86S WCI  24
ST PAUL        CLOUDY    32  30  92 CALM      29.87S
CRYSTAL        CLOUDY    33  31  92 N6        29.85F FOG     WCI  28
BLAINE         CLOUDY    34  34 100 NE6       29.86S FOG     WCI  29
LAKEVILLE      MOCLDY    28  28 100 N5        29.84S FOG     WCI  23
EDEN PRAIRIE   CLOUDY    32  30  92 NE8       29.84S WCI  25
SOUTH ST PAUL  CLOUDY    33  31  93 N5        29.85F WCI  28
LAKE ELMO      CLOUDY    32  32 100 N5        29.86S FOG     WCI  27
$$
MNZ001>005-007-008-013>017-022>024-027-028-260800-
   Northwest Minnesota

CITY           SKY/WX    TMP DP  RH WIND       PRES   REMARKS
BEMIDJI        CLOUDY    24  21  88 N6        29.94S WCI  17
HALLOCK        CLOUDY    25  19  80 N10       30.03S WCI  15
ROSEAU         CLOUDY    25  19  80 N9        29.99S WCI  15
WARROAD        MOCLDY    23  19  86 NW3       29.99S
THIEF RVR FALL CLOUDY    25  21  86 N9        29.99S WCI  15
CROOKSTON      CLOUDY    25  21  86 N10       30.03R WCI  15
FOSSTON        CLOUDY    23  19  86 N10       29.97F WCI  12
DETROIT LAKES  CLOUDY    27  25  93 CALM      29.95S
MOORHEAD       CLOUDY    27  27 100 N14       30.00S WCI  15
PARK RAPIDS    CLOUDY    26  21  81 N10       29.93S WCI  16
MAHNOMEN       CLOUDY    25  22  88 N9        29.96F WCI  15
$$
MNZ006-009>011-018-025>026-260800-
   North Central Minnesota

CITY           SKY/WX    TMP DP  RH WIND       PRES   REMARKS
BAUDETTE       CLOUDY    25  19  78 NW12      29.96S WCI  14
FLAG ISLAND    CLOUDY    23  19  86 NW12      29.97S WCI  12
INTL FALLS     CLOUDY    27  24  89 NW5       29.93S WCI  22
WASKISH        CLOUDY    27  21  80 CALM      29.96R
BIG FORK       MIX PCPN  27  21  80 CALM      29.94S
LONGVILLE      CLOUDY    27  21  80 N6        29.93S WCI  20
GRAND RAPIDS   CLOUDY    27  19  74 NW9       29.92R WCI  17
CRANE LAKE     CLOUDY    27  21  80 CALM      29.94F
ORR            CLOUDY    27  19  74 CALM      29.90S
COOK           CLOUDY    27  21  80 NW3       29.92F
WALKER         CLOUDY    25  21  85 CALM      29.95R
$$
MNZ012-019>021-037-260800-
   Northeast Minnesota

CITY           SKY/WX    TMP DP  RH WIND       PRES   REMARKS
DULUTH         CLOUDY    30  23  75 N5        29.89R WCI  25
ELY            CLOUDY    27  21  80 CALM      29.91S
HIBBING        CLOUDY    28  20  71 NW7       29.92R WCI  21
EVELETH        CLOUDY    28  23  80 N7        29.92S WCI  21
DULUTH HARBOR  CLOUDY    34  28  80 CALM      29.93S
TWO HARBORS    CLOUDY    34  27  75 CALM      29.89R
SILVER BAY     CLOUDY    32  25  74 NW3       29.89R
GRAND MARAIS     N/A     32  26  78 NW5       29.92R WCI  27
G MARAIS ARPRT CLOUDY    25  19  80 CALM      29.87S
$$
MNZ029>031-032-039>041-046>048-054>057-064-260800-
   West Central Minnesota

CITY           SKY/WX    TMP DP  RH WIND       PRES   REMARKS
FERGUS FALLS   CLOUDY    25  19  80 N9        29.98S WCI  15
WHEATON        CLOUDY    25  21  86 N14       29.98R WCI  13
MORRIS         LGT SNOW  27  25  93 N15       29.92R WCI  15
ALEXANDRIA     CLOUDY    27  23  85 N12       29.91S FOG     WCI  17
ELBOW LAKE     CLOUDY    25  23  91 N12G17    29.93S WCI  15
WADENA         CLOUDY    25  21  86 N10G16    29.92S WCI  15
GLENWOOD       LGT SNOW  27  27 100 N13       29.90S WCI  16
APPLETON       LGT SNOW  28  27  93 N17       29.91S WCI  16
BENSON         LGT SNOW  28  25  86 N10G17    29.90R WCI  19
ORTONVILLE     LGT SNOW  27  21  80 N14       29.93S WCI  15
MADISON          N/A     30  28  93 N14       29.92R WCI  20
WILLMAR        CLOUDY    30  27  86 N10       29.89R WCI  21
$$
MNZ033>034-036-042>043-049>051-058-059-260800-
   Central Minnesota

CITY           SKY/WX    TMP DP  RH WIND       PRES   REMARKS
ST CLOUD       CLOUDY    32  27  81 N8        29.88R WCI  25
SAUK CENTRE    LGT SNOW  28  26  96 N10       29.89F WCI  18
PAYNESVILLE    CLOUDY    27  26  99 NW6       29.89R WCI  20
AITKIN         CLOUDY    30  25  80 N6        29.90S WCI  24
PINE RIVER     CLOUDY    27  21  80 N10       29.96S WCI  17
BRAINERD       CLOUDY    28  23  81 N7        29.92S WCI  21
STAPLES        CLOUDY    27  21  80 N10       29.92S WCI  17
LONG PRAIRIE   LGT SNOW  28  27  93 NW6       29.90S WCI  22
LITTLE FALLS   LGT SNOW  30  27  86 CALM      29.91S
LITCHFIELD     MIX PCPN  30  30 100 N9        29.87R WCI  22
BUFFALO        CLOUDY    32  31  95 N5        29.87S FOG     WCI  27
MAPLE LAKE     CLOUDY    32  32  99 N8        29.87S FOG     WCI  25
$$
MNZ037-044-045-052-053-260800-
   East Central Minnesota

CITY           SKY/WX    TMP DP  RH WIND       PRES   REMARKS
PRINCETON      CLOUDY    32  30  93 N5        29.88S WCI  27
MORA           CLOUDY    30  28  93 VRB3      29.90S
CAMBRIDGE      LGT SNOW  34  27  75 CALM      29.86S
RUSH CITY      CLOUDY    31  31  98 CALM      29.88S
MOOSE LAKE     LGT SNOW  30  28  93 CALM      29.89S
HINCKLEY       LGT SNOW  32  30  93 CALM      29.88F
CLOQUET        CLOUDY    28  25  86 N3        29.89S
MCGREGOR       CLOUDY    30  27  86 N10       29.91R WCI  21
$$
MNZ071>073-080-081-089-090-097-098-260800-
   Southwest Minnesota

CITY           SKY/WX    TMP DP  RH WIND       PRES   REMARKS
MONTEVIDEO     CLOUDY    28  28 100 NE15      29.91R WCI  17
GRANITE FALLS  CLOUDY    29  28  94 N13       29.91R WCI  19
CANBY          CLOUDY    27  26  93 N14       29.92R WCI  16
MARSHALL       CLOUDY    28  25  86 N16       29.88R WCI  17
REDWOOD FALLS  CLOUDY    32  29  88 N9        29.87R WCI  24
OLIVIA         CLOUDY    30  28  93 N9        29.86R WCI  22
PIPESTONE      CLOUDY    28  27  93 NE14      29.83R WCI  17
WINDOM         CLOUDY    30  30 100 N14       29.83R FOG     WCI  20
WORTHINGTON    CLOUDY    30 -17  12 N20       29.82S WCI  18
JACKSON        CLOUDY    32  32 100 N12       29.81R FOG     WCI  23
TRACY          CLOUDY    30  30  97 N14       29.86R FOG     WCI  20
SLAYTON        CLOUDY    28  28  99 N14       29.85R FOG     WCI  17
$$
MNZ065>067-074>077-082>085-091>093-260800-
   South Central Minnesota

CITY           SKY/WX    TMP DP  RH WIND       PRES   REMARKS
MANKATO        CLOUDY    32  27  80 N9        29.82R WCI  24
NEW ULM        CLOUDY    32  30  93 N7        29.84R FOG     WCI  26
ST JAMES       CLOUDY    34  30  86 N9        29.84R FOG     WCI  26
FAIRMONT       CLOUDY    32  28  86 N10       29.80R WCI  24
GLENCOE        CLOUDY    33  32  96 NE5       29.84S FOG     WCI  28
FARIBAULT      CLOUDY    30  30 100 N5        29.82S FOG     WCI  25
OWATONNA       CLOUDY    32  30  93 NE3       29.81S
ALBERT LEA     CLOUDY    30  30 100 N3        29.78S
$$
MNZ078>079-086>088-094>096-260800-
   Southeast Minnesota

CITY           SKY/WX    TMP DP  RH WIND       PRES   REMARKS
ROCHESTER      PTCLDY    27  26  96 NE7       29.80S WCI  19
RED WING       CLOUDY    32  30  93 E3        29.83F
STANTON        CLOUDY    31  29  92 NE3       29.82S FOG
DODGE CENTER   CLOUDY    30  28  93 NE7       29.80S WCI  23
WINONA         PTCLDY    30  30 100 CALM      29.85S FOG
AUSTIN         CLOUDY    32  28  86 CALM      29.79R
PRESTON        PTCLDY    33  29  86 S7        29.80S WCI  27
$$
ABBREVIATIONS USED IN REMARKS
   TC - TEMPERATURES IN CELSIUS
  WCI - WIND CHILL INDEX
   HX - HEAT INDEX
  VSB - VISIBILITY
$$


USA.gov is the U.S. government's official web portal to all federal, state and local government web resources and services.